FW7205 Weather Reports


Display with metric or nautical units.
time (UTC)temp
F
wind
direction
speed
MPH
gust
MPH
rain 1hr
in
rain 24hr
in
rain mn
in
humidity
%
barometer
mb
20260505121556 70 184 0.0 6.0 0.00 0.00 0.00 91 1007.1
20260505120055 70 218 0.0 4.0 0.00 0.00 0.00 91 1006.7
20260505114558 70 201 0.0 4.0 0.00 0.00 0.00 91 1007.0
20260505113059 70 0 1.0 4.0 0.00 0.00 0.00 91 1006.8
20260505111558 69 0 0.0 4.0 0.00 0.00 0.00 91 1006.7
20260505110105 69 0 0.0 2.0 0.00 0.00 0.00 91 1007.1
20260505101603 69 196 0.0 3.0 0.00 0.00 0.00 90 1006.9
20260505100057 69 0 0.0 2.0 0.00 0.00 0.00 90 1007.0
20260505094601 69 241 0.0 2.0 0.00 0.00 0.00 90 1007.1
20260505093055 69 0 0.0 3.0 0.00 0.00 0.00 90 1007.1
20260505091559 69 0 0.0 6.0 0.00 0.00 0.00 89 1007.1
20260505090059 69 0 0.0 2.0 0.00 0.00 0.00 89 1007.2
20260505084553 69 0 0.0 3.0 0.00 0.00 0.00 89 1007.5
20260505083057 69 0 0.0 3.0 0.00 0.00 0.00 88 1007.7
20260505081603 69 0 0.0 2.0 0.00 0.00 0.00 88 1007.9
20260505080058 69 0 0.0 4.0 0.00 0.00 0.00 87 1007.9
20260505074610 69 0 0.0 2.0 0.00 0.00 0.00 87 1007.9
20260505073102 69 195 0.0 2.0 0.00 0.00 0.00 87 1008.2
20260505071557 69 202 0.0 2.0 0.00 0.00 0.00 86 1008.2
20260505070118 69 0 0.0 3.0 0.00 0.00 0.00 86 1008.5
20260505064559 69 200 0.0 3.0 0.00 0.00 0.00 85 1008.9
20260505063103 69 0 0.0 3.0 0.00 0.00 0.00 85 1008.8
20260505061619 69 0 0.0 3.0 0.00 0.00 0.00 84 1009.1
20260505060103 69 0 0.0 3.0 0.00 0.00 0.00 84 1008.6
20260505054625 70 192 0.0 3.0 0.00 0.00 0.00 83 1008.9
20260505053106 70 229 1.0 5.0 0.00 0.00 0.00 83 1008.9
20260505051558 70 122 1.0 5.0 0.00 0.00 0.00 82 1008.8
20260505041554 72 116 1.0 4.0 0.00 0.00 0.00 80 1009.2
20260505040059 72 208 1.0 6.0 0.00 0.00 0.00 79 1009.0
20260505034558 72 117 1.0 4.0 0.00 0.00 0.00 78 1009.0
20260505033056 73 252 1.0 5.0 0.00 0.00 0.00 77 1009.0
20260505031558 73 218 1.0 5.0 0.00 0.00 0.00 77 1009.0
20260505030105 73 0 1.0 5.0 0.00 0.00 0.00 77 1009.1
20260505024608 74 97 0.0 5.0 0.00 0.00 0.00 76 1008.9
20260505023055 74 119 0.0 4.0 0.00 0.00 0.00 76 1008.7
20260505021609 74 0 0.0 2.0 0.00 0.00 0.00 75 1008.7
20260505014603 75 0 0.0 3.0 0.00 0.00 0.00 73 1008.6
20260505013058 76 221 0.0 3.0 0.00 0.00 0.00 72 1008.5
20260505011557 76 0 0.0 3.0 0.00 0.00 0.00 72 1008.5
20260505010056 76 136 1.0 5.0 0.00 0.00 0.00 71 1008.4
20260505004552 77 0 2.0 5.0 0.00 0.00 0.00 70 1008.3
20260505003055 77 92 0.0 3.0 0.00 0.00 0.00 70 1008.5
20260505001552 78 0 1.0 4.0 0.00 0.00 0.00 69 1008.5
20260505000057 78 113 0.0 3.0 0.00 0.00 0.00 68 1008.5
20260504234555 78 199 1.0 6.0 0.00 0.00 0.00 68 1008.7
20260504233100 79 123 1.0 4.0 0.00 0.00 0.00 67 1008.7
20260504231557 79 142 1.0 5.0 0.00 0.00 0.00 66 1008.7
20260504230053 79 0 1.0 3.0 0.00 0.00 0.00 65 1008.9
20260504224552 80 290 0.0 4.0 0.00 0.00 0.00 64 1009.1
20260504223057 80 138 1.0 6.0 0.00 0.00 0.00 64 1009.4
20260504221604 80 176 1.0 4.0 0.00 0.00 0.00 63 1009.1
20260504220118 80 121 1.0 6.0 0.00 0.00 0.00 64 1009.4
20260504214555 79 0 1.0 5.0 0.00 0.00 0.00 63 1009.9
20260504213117 80 124 1.0 5.0 0.00 0.00 0.00 63 1009.8
20260504211556 81 123 1.0 4.0 0.00 0.00 0.00 61 1010.3
20260504210101 80 0 1.0 3.0 0.00 0.00 0.00 62 1010.5
20260504204604 80 105 1.0 6.0 0.00 0.00 0.00 61 1010.9
20260504203057 80 0 1.0 5.0 0.00 0.00 0.00 60 1011.0
20260504201603 81 277 1.0 3.0 0.00 0.00 0.00 59 1011.3
20260504200108 80 213 1.0 4.0 0.00 0.00 0.00 62 1011.5
20260504194555 80 140 1.0 6.0 0.00 0.00 0.00 62 1011.8
20260504193052 79 121 1.0 4.0 0.00 0.00 0.00 62 1012.2
20260504191551 80 0 1.0 7.0 0.00 0.00 0.00 60 1012.0
20260504190053 80 158 1.0 5.0 0.00 0.00 0.00 60 1012.1
20260504184559 79 89 1.0 5.0 0.00 0.00 0.00 60 1012.6
20260504183059 79 0 2.0 7.0 0.00 0.00 0.00 60 1012.6
20260504181554 78 230 1.0 5.0 0.00 0.00 0.00 61 1012.9
20260504180052 78 89 1.0 5.0 0.00 0.00 0.00 60 1013.0
20260504174556 78 0 1.0 6.0 0.00 0.00 0.00 61 1013.3
20260504173059 77 184 1.0 4.0 0.00 0.00 0.00 61 1013.3
20260504171558 77 234 1.0 6.0 0.00 0.00 0.00 61 1013.6